Wind_Speed
3 3 3 4 3 4 5 3 0 2 3 2 5 7 11 6 11 12 18 23 25 28 27 27 25 22 20 18 16 13 9 7 6 5 4 4 5 6 7 8 9 10 11 12
4 1 1 1 2 2 2 2 3 1 2 1 6 13 12 7 8 23 27 27 29 29 31 30 28 25 22 18 16 13 10 7 5 4 3 3 4 5 6 7 9 10 11 11
3 0 1 1 1 1 1 3 1 2 4 2 6 8 6 3 2 4 21 28 31 35 36 35 33 29 25 21 16 13 10 8 6 4 3 3 3 4 6 7 8 9 10 11
2 1 1 1 2 2 1 2 2 3 3 3 2 5 5 4 6 4 6 15 24 31 33 35 34 31 26 21 18 14 11 8 6 4 3 3 4 5 5 6 8 9 10 11
1 1 2 1 2 2 1 3 3 2 3 3 4 2 6 5 5 5 6 10 14 27 35 36 35 30 26 22 18 15 11 8 6 4 4 5 5 6 6 7 8 9 10 11
3 2 3 1 2 2 3 4 5 4 3 2 3 4 4 2 5 8 6 23 17 20 31 33 33 31 28 23 19 16 12 9 6 5 5 6 7 7 8 8 9 9 10 11
1 2 2 4 1 2 4 4 3 4 3 4 3 2 6 6 5 6 12 25 14 11 28 33 35 34 29 25 21 16 12 9 8 7 6 7 8 8 9 9 9 9 10 11
2 5 5 6 3 1 2 4 3 5 2 3 3 4 3 4 12 12 10 13 5 8 20 28 32 32 29 24 19 16 13 11 9 8 8 8 9 10 10 10 10 10 10 11
5 3 0 4 4 3 1 1 2 5 1 2 1 6 8 3 10 15 18 16 12 4 12 20 25 28 24 21 17 14 13 12 11 10 10 10 10 11 11 11 11 11 12 12
2 4 2 1 1 5 2 1 1 1 2 3 3 3 4 13 13 11 10 17 15 8 9 10 15 19 18 15 13 14 14 14 14 13 12 12 12 12 13 13 13 13 13 14
1 2 4 1 3 5 2 2 1 1 2 4 1 2 5 7 6 7 10 17 11 7 10 3 4 9 12 11 12 14 15 16 16 16 15 13 13 13 13 13 14 14 14 15
3 0 3 6 3 1 1 1 3 2 2 1 1 2 3 8 5 13 17 21 15 6 2 8 13 14 9 12 13 14 16 19 18 18 17 15 14 13 13 14 14 15 15 15
2 1 4 7 4 1 1 2 2 2 1 3 2 3 8 15 16 19 20 24 20 14 6 5 8 14 13 11 14 18 22 23 22 22 19 17 15 14 14 14 14 15 16 16
4 1 0 2 2 6 2 6 1 2 1 0 1 2 11 12 12 19 27 26 24 17 11 7 5 9 12 15 19 21 21 23 24 23 21 18 16 15 14 13 14 15 16 16
4 1 2 2 6 4 9 10 10 4 2 2 3 3 6 10 11 15 19 22 21 16 7 8 7 6 6 9 11 14 16 18 21 23 22 18 17 15 13 13 14 15 16 17
6 2 2 3 10 13 12 13 11 9 8 2 2 0 3 15 17 19 21 19 17 5 8 10 12 13 13 14 14 15 16 16 19 22 21 19 18 16 15 14 14 15 16 17
3 1 3 2 3 3 6 7 8 4 3 2 1 2 5 11 15 19 26 20 18 13 16 16 17 18 18 19 18 16 14 14 18 20 20 20 19 17 16 14 14 15 17 18
2 2 2 2 4 3 5 2 5 7 2 3 2 4 7 12 20 26 9 10 24 28 27 27 27 28 25 21 19 18 15 15 16 18 20 21 20 18 16 15 14 15 16 17
5 3 2 3 1 2 0 4 5 2 5 4 2 7 13 17 20 13 5 20 29 28 28 30 28 26 23 22 19 19 18 17 18 19 19 21 20 18 16 15 14 14 15 15
5 5 4 3 4 4 5 4 9 0 4 0 12 9 14 19 11 9 22 30 31 30 30 31 29 27 25 22 19 22 20 19 20 20 19 19 20 19 17 14 14 13 14 15
4 3 3 1 1 5 6 5 6 5 5 11 19 20 19 12 20 38 37 34 30 31 30 30 28 28 26 24 22 26 24 23 19 18 19 20 21 19 16 15 13 12 13 14
4 3 2 2 3 4 6 3 2 7 21 24 20 20 25 28 35 34 36 34 31 33 31 31 28 28 26 24 23 27 27 22 19 19 21 22 20 19 17 14 12 11 13 14
2 6 3 7 5 3 3 11 11 15 18 18 24 29 29 31 34 31 31 29 30 32 32 32 29 27 25 22 22 26 23 20 19 21 22 23 20 18 16 14 11 11 12 13
4 5 3 3 4 9 8 21 12 23 21 25 25 24 26 29 31 21 22 28 30 32 33 32 26 25 24 21 18 19 19 18 19 20 20 21 21 18 16 13 11 10 11 10
3 7 4 5 8 11 7 13 23 20 23 24 24 23 25 28 29 28 30 29 29 29 31 26 26 27 26 23 19 18 19 18 19 20 19 21 20 18 15 12 10 9 10 8
8 5 4 4 2 3 15 23 19 20 23 23 24 26 27 24 26 27 26 23 26 28 26 27 26 26 25 23 22 19 18 18 19 20 21 23 20 18 15 11 8 8 7 7
Wind_Direction
18 57 220 218 157 155 129 105 327 289 15 339 263 275 274 211 217 219 210 208 207 204 200 200 200 201 202 202 205 206 206 208 216 221 232 242 242 247 253 257 259 258 255 252
21 195 51 88 117 126 84 86 258 283 25 54 342 293 265 220 211 213 212 210 209 204 201 199 201 203 204 207 202 203 203 207 217 229 240 251 261 259 257 255 252 250 252 254
173 132 330 103 54 154 114 152 300 231 329 57 328 281 281 25 263 256 226 225 215 208 201 199 200 201 202 202 204 203 205 210 222 238 257 270 276 272 268 265 266 261 260 258
91 320 126 97 87 8 228 347 44 26 57 243 43 281 312 339 332 12 295 227 224 212 211 205 200 200 202 201 199 202 207 214 226 244 271 294 298 286 273 269 269 268 264 264
283 30 29 97 60 7 129 55 71 68 83 51 316 72 271 6 354 333 318 2 252 226 216 208 206 205 202 200 200 202 209 218 232 253 282 301 305 302 295 286 277 270 269 264
72 51 39 45 63 43 134 74 43 54 73 6 283 133 299 4 268 308 310 314 308 229 215 214 207 202 199 198 201 206 211 219 233 258 282 300 307 307 301 292 283 276 272 269
129 58 37 20 119 60 68 70 333 349 9 226 324 63 249 287 278 263 300 310 314 225 206 204 202 197 198 200 203 207 217 225 238 257 278 296 304 305 302 295 289 281 274 269
44 333 11 344 59 224 57 148 167 233 222 287 44 236 262 237 315 351 354 343 359 184 202 201 199 195 198 201 206 214 222 232 246 260 273 289 301 305 304 301 298 292 284 277
9 299 79 30 16 24 268 60 220 104 55 45 273 299 317 310 12 9 19 36 44 127 188 198 194 196 198 204 214 227 235 240 251 261 269 282 294 302 305 305 303 299 295 290
203 328 332 106 107 53 69 49 67 12 197 256 302 281 307 347 351 351 7 23 39 79 127 163 182 190 200 213 226 235 239 244 249 256 266 279 291 300 305 308 307 305 301 296
203 128 284 145 190 182 149 190 191 292 234 176 186 71 349 334 336 338 354 13 29 47 120 129 179 203 209 224 239 247 250 255 259 262 263 271 282 293 303 307 308 308 306 302
319 146 264 246 275 216 98 265 216 234 210 242 178 104 319 2 356 355 338 356 3 343 264 209 197 225 204 221 241 263 268 268 263 258 255 260 273 287 300 307 311 310 309 308
317 349 317 327 5 315 270 227 303 319 245 209 207 138 17 8 7 3 1 6 4 8 343 243 221 213 226 245 266 274 276 271 265 259 255 260 272 283 294 304 309 313 313 312
351 262 58 320 359 307 3 31 7 297 305 185 334 37 4 0 354 347 346 348 352 355 353 350 302 268 270 272 269 268 264 263 259 251 249 252 261 272 285 300 310 315 315 313
65 177 335 271 276 94 62 33 17 25 360 322 280 77 348 346 335 322 326 334 335 342 9 30 7 343 326 310 295 281 271 261 247 242 243 246 254 266 280 296 311 318 317 314
355 288 3 24 55 87 62 32 25 15 7 38 83 355 241 330 334 332 332 330 328 8 20 10 4 350 331 326 318 301 281 262 250 244 244 244 254 265 278 293 310 317 315 314
39 49 32 309 348 244 29 342 351 313 262 305 352 280 322 333 335 329 322 350 353 328 337 325 316 323 327 315 316 320 296 262 250 245 242 244 251 261 274 290 307 312 313 314
328 70 84 272 6 27 217 320 304 315 246 146 161 272 294 301 311 317 314 347 334 328 325 319 311 300 301 304 301 304 295 272 256 244 240 242 249 258 270 286 300 307 311 314
52 108 35 87 82 261 51 321 327 19 282 143 284 325 318 324 323 308 249 317 320 320 318 318 315 306 293 291 292 291 292 275 259 249 246 244 246 253 265 280 292 301 306 309
60 79 103 45 118 203 233 252 303 251 278 301 340 318 321 331 321 288 308 314 319 319 318 318 313 305 289 283 281 282 287 278 263 254 251 247 245 251 261 274 286 297 301 308
344 357 107 357 217 286 243 279 340 58 253 295 318 311 311 301 284 289 303 307 315 319 313 317 310 305 297 281 272 276 280 276 272 257 248 242 243 251 259 269 282 292 295 303
179 127 236 87 46 298 203 357 92 263 297 309 309 310 305 301 299 292 292 298 309 318 315 317 309 305 301 289 271 267 272 279 268 249 242 241 242 246 252 264 277 286 290 299
308 188 190 176 217 251 245 287 312 323 320 317 316 314 313 310 306 293 283 293 305 315 314 315 310 306 299 292 272 265 267 267 261 241 247 235 237 239 247 258 269 277 282 296
246 182 201 55 256 245 303 305 316 324 314 315 317 317 318 313 315 324 306 306 308 313 312 314 311 308 305 295 283 268 260 259 252 242 238 227 231 234 241 252 264 271 273 295
207 154 189 261 285 293 288 313 321 314 313 319 321 324 324 321 318 318 311 308 308 307 311 313 310 305 299 295 282 269 262 256 245 238 225 223 226 230 235 247 259 266 269 295
189 195 170 240 245 256 301 320 316 316 324 327 326 324 321 323 324 323 317 317 307 310 312 310 306 302 296 288 278 270 262 253 242 230 219 216 220 224 234 239 246 254 264 277
Height
1446 1451 1452 1458 1455 1463 1469 1471 1467 1453 1455 1454 1453 1453 1445 1446 1447 1447 1449 1452 1455 1458 1464 1469 1472 1475 1478 1481 1484 1488 1489 1492 1495 1495 1494 1495 1495 1497 1497 1498 1498 1498 1501 1502
1451 1453 1453 1453 1454 1454 1456 1459 1457 1456 1456 1458 1461 1450 1442 1440 1440 1439 1440 1445 1450 1455 1461 1464 1467 1472 1475 1480 1482 1486 1488 1491 1493 1494 1493 1494 1496 1494 1495 1497 1498 1498 1499 1498
1451 1453 1453 1453 1455 1454 1460 1468 1459 1461 1459 1460 1462 1444 1438 1435 1436 1436 1438 1441 1444 1448 1453 1458 1462 1467 1472 1478 1480 1484 1487 1489 1492 1492 1492 1493 1493 1493 1494 1495 1495 1495 1496 1496
1454 1454 1453 1454 1455 1458 1455 1462 1463 1463 1468 1470 1470 1460 1439 1444 1439 1438 1438 1440 1442 1445 1450 1454 1459 1464 1469 1474 1478 1483 1486 1488 1490 1491 1490 1490 1490 1492 1493 1493 1493 1493 1493 1492
1454 1455 1455 1454 1459 1459 1461 1463 1465 1472 1482 1484 1472 1477 1446 1442 1445 1444 1439 1439 1440 1442 1445 1449 1455 1462 1467 1473 1478 1482 1485 1486 1488 1488 1488 1488 1489 1490 1489 1490 1490 1490 1490 1490
1459 1460 1461 1463 1463 1462 1463 1466 1471 1478 1493 1498 1472 1475 1455 1458 1458 1446 1440 1437 1435 1435 1439 1447 1454 1460 1467 1472 1476 1479 1482 1484 1485 1486 1486 1486 1487 1487 1487 1488 1488 1487 1487 1487
1458 1463 1465 1466 1464 1466 1468 1472 1485 1486 1501 1480 1484 1481 1464 1460 1456 1451 1443 1434 1431 1430 1436 1441 1449 1457 1464 1469 1473 1478 1480 1482 1483 1484 1485 1485 1485 1485 1485 1485 1485 1485 1485 1485
1473 1468 1475 1472 1473 1470 1477 1479 1471 1471 1490 1472 1486 1488 1461 1460 1452 1448 1444 1438 1434 1433 1438 1443 1449 1456 1463 1468 1473 1476 1478 1479 1481 1482 1483 1484 1484 1484 1483 1483 1482 1482 1482 1482
1483 1472 1475 1474 1474 1476 1478 1482 1484 1487 1503 1488 1497 1481 1461 1457 1452 1449 1446 1443 1442 1441 1443 1448 1452 1458 1464 1468 1471 1474 1476 1477 1479 1480 1481 1482 1482 1482 1481 1480 1479 1479 1478 1478
1480 1481 1477 1475 1476 1479 1477 1485 1473 1479 1482 1494 1490 1505 1467 1463 1461 1457 1453 1450 1448 1448 1449 1453 1457 1461 1465 1469 1472 1473 1475 1476 1477 1478 1479 1480 1480 1479 1478 1477 1476 1476 1476 1475
1476 1480 1479 1474 1477 1472 1480 1477 1483 1482 1474 1479 1484 1465 1480 1474 1471 1467 1461 1458 1456 1456 1456 1458 1460 1464 1466 1469 1470 1471 1472 1473 1474 1475 1475 1476 1476 1476 1475 1474 1473 1472 1472 1471
1477 1479 1486 1476 1484 1482 1479 1474 1472 1462 1467 1478 1473 1473 1479 1475 1471 1468 1465 1462 1460 1459 1460 1461 1463 1464 1466 1469 1469 1469 1469 1469 1470 1471 1472 1473 1473 1473 1472 1471 1470 1469 1468 1468
1475 1476 1483 1476 1487 1482 1481 1477 1474 1473 1470 1470 1458 1466 1477 1472 1468 1467 1465 1463 1461 1460 1459 1459 1461 1463 1464 1465 1465 1465 1465 1465 1466 1466 1468 1468 1469 1469 1469 1468 1468 1467 1466 1464
1476 1483 1476 1477 1478 1476 1471 1472 1474 1473 1467 1478 1472 1472 1478 1478 1476 1471 1466 1463 1462 1461 1459 1459 1459 1460 1461 1461 1461 1461 1460 1460 1461 1462 1464 1465 1466 1466 1466 1466 1465 1464 1462 1460
1483 1495 1480 1477 1477 1476 1480 1480 1478 1480 1479 1473 1485 1483 1483 1480 1478 1474 1471 1467 1463 1460 1459 1459 1459 1459 1459 1458 1457 1456 1455 1455 1456 1457 1459 1461 1462 1463 1463 1463 1462 1460 1458 1456
1488 1496 1485 1484 1475 1479 1485 1485 1482 1481 1483 1480 1479 1482 1482 1479 1476 1472 1469 1466 1463 1461 1460 1459 1458 1457 1457 1456 1454 1451 1450 1450 1451 1452 1454 1456 1457 1458 1458 1459 1458 1456 1454 1452
1499 1502 1497 1497 1488 1480 1494 1496 1489 1489 1488 1483 1482 1486 1482 1478 1476 1473 1467 1464 1462 1461 1460 1458 1456 1454 1453 1452 1450 1447 1446 1444 1445 1447 1449 1451 1452 1454 1454 1454 1453 1452 1450 1448
1495 1503 1503 1507 1497 1512 1499 1491 1489 1488 1484 1483 1485 1485 1482 1479 1474 1470 1466 1465 1462 1460 1456 1454 1452 1449 1448 1447 1446 1443 1441 1441 1440 1441 1444 1445 1446 1448 1449 1449 1449 1447 1446 1444
1493 1504 1516 1519 1519 1500 1493 1493 1491 1491 1484 1483 1484 1482 1479 1475 1469 1464 1463 1462 1459 1455 1452 1448 1445 1443 1441 1440 1440 1438 1437 1436 1436 1436 1437 1439 1441 1442 1443 1445 1444 1443 1442 1441
1494 1499 1507 1521 1524 1503 1504 1489 1487 1487 1489 1481 1480 1477 1475 1473 1469 1458 1459 1456 1452 1449 1446 1441 1439 1436 1434 1434 1433 1431 1431 1431 1430 1431 1432 1434 1435 1437 1438 1440 1440 1439 1438 1436
1509 1515 1520 1519 1530 1507 1489 1486 1485 1499 1494 1478 1477 1475 1472 1470 1469 1454 1452 1449 1448 1443 1439 1436 1432 1428 1426 1426 1426 1424 1424 1423 1424 1425 1427 1428 1429 1432 1433 1434 1435 1434 1434 1432
1516 1524 1521 1523 1529 1513 1482 1484 1490 1485 1479 1476 1473 1471 1467 1463 1455 1450 1446 1443 1440 1436 1432 1430 1425 1421 1419 1417 1417 1416 1416 1417 1417 1419 1421 1423 1425 1427 1429 1430 1430 1430 1429 1428
1512 1500 1508 1504 1491 1479 1479 1479 1479 1477 1475 1472 1468 1464 1460 1454 1448 1443 1439 1436 1433 1430 1426 1423 1419 1414 1412 1410 1409 1407 1409 1410 1411 1412 1414 1416 1419 1422 1424 1425 1426 1426 1425 1424
1493 1491 1493 1493 1477 1475 1475 1475 1474 1473 1470 1467 1463 1458 1454 1449 1444 1437 1434 1431 1427 1424 1420 1417 1413 1408 1405 1404 1402 1401 1402 1403 1403 1405 1407 1411 1414 1417 1419 1420 1422 1422 1421 1421
1487 1488 1486 1484 1475 1473 1472 1472 1470 1468 1465 1461 1457 1453 1449 1444 1438 1433 1428 1425 1421 1417 1414 1411 1407 1403 1400 1398 1396 1396 1395 1396 1397 1399 1401 1405 1409 1412 1415 1416 1417 1417 1417 1417
1480 1478 1482 1479 1472 1473 1470 1468 1465 1462 1458 1455 1451 1446 1443 1439 1433 1428 1423 1419 1415 1411 1407 1403 1400 1397 1394 1391 1390 1389 1389 1389 1391 1393 1396 1399 1403 1407 1410 1412 1413 1413 1413 1413